Find Starlink 3517

NORAD ID: 51735 Int'l Des: 2022-016 Owner: SPXS Country: US Constellation: starlink operational
LEOCIRCULAR

实时位置

正在加载3D地球...

关于 Starlink 3517

正在加载描述...

即将过境

Passes for default location (London). Set your location on the main map for personalized predictions.

高度历史

Loading altitude history...

两行轨道根数

1 51735U 22016X 26123.83746933 .00000918 00000-0 75751-4 0 9996
2 51735 53.2174 71.5529 0001399 84.2255 275.8897 15.08836352231892
Epoch: May 3, 2026 • Age: 7 hours

当前状态

高度 544.4 km
速度 7.60 km/s
星下点 48.98°N, 134.48°W
发射日期 Feb 21, 2022
运行时间 4.1 years
类型 internet

技术详情

分类 Payload
质量 297.00 kg
干质量 275.00 kg
总质量 297.00 kg
长度 0.20 m
直径 2.80 m
跨度 9.00 m
形状 Box + pan
制造商 SPXS
平台类型 Starlink
阶段状态 In Orbit
所有者/国家 SPXS/US

Most Searched